Location: Unspecified
(58.3448°N, 0.0000°E)
Time: 04:50:02
(UTC+00:00)

NANOSAT 1B - Visible Passes

Search period start: 05 April 2026 00:00
Search period end: 15 April 2026 00:00
Orbit: 554 x 625 km, 98.1° (Epoch: 29 March)

Date Brightness Start Highest point End Pass type
(mag) Time Alt. Az. Time Alt. Az. Time Alt. Az.
5 Apr ? 01:05:48 30° WNW 01:05:48 30° WNW 01:08:26 10° NNW visible
5 Apr ? 23:36:57 40° ENE 23:36:57 40° ENE 23:40:37 10° N visible
6 Apr ? 01:13:28 28° WNW 01:13:28 28° WNW 01:16:04 10° NNW visible
6 Apr ? 22:08:46 10° ENE 22:09:55 11° NE 22:11:03 10° NNE visible
6 Apr ? 23:44:36 46° ENE 23:44:36 46° ENE 23:48:21 10° N visible
7 Apr ? 01:21:07 25° WNW 01:21:07 25° WNW 01:23:40 10° NW visible
7 Apr ? 22:15:50 10° ENE 22:17:29 12° NE 22:19:08 10° NNE visible
7 Apr ? 23:52:15 53° ENE 23:52:15 53° ENE 23:56:05 10° N visible
8 Apr ? 01:28:45 23° WNW 01:28:45 23° WNW 01:31:14 10° NW visible
8 Apr ? 22:23:22 11° ENE 22:25:03 14° NE 22:27:05 10° NNE visible
8 Apr ? 23:59:53 61° ENE 23:59:53 61° ENE 00:03:47 10° NNW visible
9 Apr ? 01:36:23 20° WNW 01:36:23 20° WNW 01:38:47 10° NW visible
9 Apr ? 22:31:00 12° ENE 22:32:37 15° NE 22:34:58 10° NNE visible
10 Apr ? 00:07:31 71° ENE 00:07:31 71° ENE 00:11:29 10° NNW visible
10 Apr ? 01:44:01 18° WNW 01:44:01 18° WNW 01:46:18 10° NW visible
10 Apr ? 22:38:38 14° ENE 22:40:11 17° NE 22:42:48 10° N visible
11 Apr ? 00:15:08 81° NE 00:15:08 81° NE 00:19:09 10° NNW visible
11 Apr ? 01:51:39 16° WNW 01:51:39 16° WNW 01:53:45 10° NW visible
11 Apr ? 22:46:15 15° E 22:47:45 19° NE 22:50:36 10° N visible
12 Apr ? 00:22:46 86° W 00:22:46 86° W 00:26:49 10° NNW visible
12 Apr ? 01:59:16 14° W 01:59:16 14° W 02:01:09 10° NW visible
12 Apr ? 22:53:52 17° E 22:55:19 21° NE 22:58:22 10° N visible
13 Apr ? 00:30:22 75° WSW 00:30:23 75° WSW 00:34:29 10° NNW visible
13 Apr ? 02:06:53 13° W 02:06:53 13° W 02:08:26 10° WNW visible
13 Apr ? 23:01:28 19° E 23:02:54 23° NE 23:06:08 10° N visible
14 Apr ? 00:37:59 65° WSW 00:38:02 65° WSW 00:42:06 10° NNW visible
14 Apr ? 02:14:29 11° W 02:14:29 11° W 02:15:30 10° WNW visible
14 Apr ? 23:09:04 21° E 23:10:27 26° ENE 23:13:52 10° N visible
